Meteo Giornale » Osservazioni meteo Serbia » Prishtina

ore: 23:30 - Osservazioni Meteo Prishtina
Lat. 42° 38' N Lon. 21° 8' E Alt. 576 metri s.l.m.

sereno

23 °C

Sereno

Temp. 24 Ore

0 °C

32 °C

Nord/NOvest

13 Km/h

Dew point 14 °C

Umidità 56 %

Visibilità  10 Km

Il sole sorge alle ore 06:01

Il sole tramonta alle ore 19:08

Data e Ora Cielo e Fenomeni T °C DP °C Um. % Pres. hPa Vis. km Vento km/h
Ieri h: 23:30 sereno Sereno 23 14 56 1021 10 N/NO 13
Ieri h: 23:00 sereno Sereno 23 14 56 1021 10 N/NO 9.3
Ieri h: 22:30 sereno Sereno 24 14 53 1021 10 N 11.1
Ieri h: 22:00 sereno Sereno 24 14 53 1021 10 N/NO 11.1
Ieri h: 21:30 sereno Sereno 25 14 50 1021 10 N/NO 9.3
Ieri h: 21:00 sereno Sereno 25 14 50 1020 10 N/NO 11.1
Ieri h: 20:30 nuvoloso Nuvoloso 26 14 47 1020 10 N 14.8
Ieri h: 20:00 nuvoloso Nuvoloso 26 14 47 1019 10 N/NE 16.7
Ieri h: 19:30 nuvoloso Nuvoloso 26 14 47 1019 10 N/NE 20.3
Ieri h: 19:00 poco_nuvoloso Poco Nuvoloso 27 15 47 1019 10 N/NE 20.3
Ieri h: 18:30 poco_nuvoloso Poco Nuvoloso 28 15 45 1019 10 N/NE 27.8
Ieri h: 18:00 poco_nuvoloso Poco Nuvoloso 29 15 42 1018 10 N/NE 35.2
Ieri h: 17:30 poco_nuvoloso Poco Nuvoloso 29 15 42 1018 10 N/NE 31.5
Ieri h: 17:00 poco_nuvoloso Poco Nuvoloso 30 15 40 1018 10 N/NE 33.3
Ieri h: 16:30 poco_nuvoloso Poco Nuvoloso 30 15 40 1018 10 N/NE 33.3
Ieri h: 16:00 poco_nuvoloso Poco Nuvoloso 31 15 37 1018 10 N 35.2
Ieri h: 15:30 poco_nuvoloso Poco Nuvoloso 31 15 37 1018 10 N/NE 29.6
Ieri h: 15:00 poco_nuvoloso Poco Nuvoloso 32 15 35 1018 10 N 27.8
Ieri h: 14:30 poco_nuvoloso Poco Nuvoloso 32 15 35 1018 10 N/NE 20.3
Ieri h: 14:00 poco_nuvoloso Poco Nuvoloso 31 15 37 1019 10 N 18.5
Ieri h: 13:30 poco_nuvoloso Poco Nuvoloso 31 15 37 1019 10 N 14.8
Ieri h: 13:00 poco_nuvoloso Poco Nuvoloso 31 15 37 1019 10 N/NE 16.7
Ieri h: 12:30 sereno Sereno 30 16 42 1019 10 N/NE 16.7
Ieri h: 12:00 sereno Sereno 0 0 38 1019 3 N 16.7
Ieri h: 11:30 sereno Sereno 29 16 45 1019 10 N/NE 14.8
Ieri h: 11:00 sereno Sereno 29 16 45 1019 10 N 14.8
Ieri h: 10:30 sereno Sereno 28 16 48 1019 10 N 18.5
Ieri h: 10:00 sereno Sereno 26 16 54 1019 10 N 16.7
Ieri h: 09:30 sereno Sereno 25 16 57 1019 10 N 24
Ieri h: 09:00 sereno Sereno 24 17 64 1018 10 N/NE 7.4
Ieri h: 08:30 sereno Sereno 23 16 64 1018 10 N 5.5
Ieri h: 08:00 sereno Sereno 21 16 73 1018 10 N 3.7
Ieri h: 07:30 sereno Sereno 19 16 82 1018 10 N 3.7
Ieri h: 07:00 sereno Sereno 19 15 77 1018 10 N 1.8
Ieri h: 06:30 sereno Sereno 19 16 82 1017 10 N 5.5
Ieri h: 06:00 sereno Sereno 19 15 77 1017 10 N 3.7
Ieri h: 05:30 sereno Sereno 19 16 82 1017 10 N 7.4
Ieri h: 05:00 sereno Sereno 19 16 82 1017 10 N 3.7
Ieri h: 04:30 sereno Sereno 19 16 82 1017 10 N 3.7
Ieri h: 04:00 sereno Sereno 20 17 82 1017 10 N 3.7
Ieri h: 03:30 sereno Sereno 22 16 68 1017 10 N 3.7
Ieri h: 03:00 sereno Sereno 22 16 68 1017 10 N 3.7
Ieri h: 02:30 sereno Sereno 22 16 68 1017 10 N 3.7
Ieri h: 02:00 sereno Sereno 21 17 77 1017 10 N 5.5
Ieri h: 01:30 sereno Sereno 22 17 73 1017 10 O 7.4
Ieri h: 01:00 sereno Sereno 22 18 78 1016 10 O 7.4